{"data":{"norad_id":66692,"epoch":"2026-05-25T03:58:49.306080Z","epoch_age_seconds":71154,"freshness":"FRESH","line1":"1 66692U 25276AC  26145.16584845  .00005101  00000+0  24387-3 0  9993","line2":"2 66692  97.4212 219.1041 0004736  96.3250 263.8525 15.19433704 26926","mean_motion":15.19433704,"eccentricity":0.0004736,"inclination_deg":97.4212,"raan_deg":219.1041,"arg_perigee_deg":96.325,"mean_anomaly_deg":263.8525,"bstar":0.00024387,"rev_number":2692,"period_min":94.772150717015,"perigee_km":504.28989390495,"apogee_km":510.8120175366,"semimajor_km":6885.6879557208,"source":"CELESTRAK","updated_at":"2026-05-25T13:38:06.413772Z"}}